Regional Weather Roundup
Issued by NWS

Home | Current Version | Previous Version | Text Only | Print | Product List | Glossary On
Versions: 1 2 3 4 5 6 7 8 9 10 11 12 13 14 15 16 17 18 19 20 21 22 23 24 25 26 27 28 29 30 31 32 33 34 35 36 37 38 39 40 41 42 43 44 45 46 47 48 49 50
000
ASUS43 KLMK 272110
RWRKY
KENTUCKY REGIONAL WEATHER ROUNDUP
NATIONAL WEATHER SERVICE LOUISVILLE KY
500 PM EDT WED JUL 27 2016

NOTE "FAIR" INDICATES FEW OR NO CLOUDS BELOW 12,000 FEET
WITH NO SIGNIFICANT WEATHER AND/OR OBSTRUCTIONS TO VISIBILITY.

KYZ001>023-026-027-061>063-070>075-272200-
WESTERN AND SOUTH CENTRAL KENTUCKY

CITY           SKY/WX    TMP DP  RH WIND       PRES   REMARKS
PADUCAH        CLOUDY    85  75  72 N8        29.89F THUNDER HX  93
HENDERSON      MOSUNNY   90  73  58 CALM      29.90F HX  98
OWENSBORO      MOSUNNY   93  76  57 SW6       29.92F HX 105
HOPKINSVILLE   CLOUDY    88  77  70 S10G23    29.91F HX 100
BOWLING GREEN  MOSUNNY   92  74  55 VRB7      29.93F HX 101
GLASGOW        MOSUNNY   93  72  50 SW5       29.94F HX 100
$$

KYZ024-025-028>034-038-045-046-053-272200-
NORTH CENTRAL KENTUCKY

CITY           SKY/WX    TMP DP  RH WIND       PRES   REMARKS
LOUISVILLE/SDF PTSUNNY   92  70  48 SW7       29.92F HX  97
LOUISVILLE/LOU CLOUDY    89  74  60 NW8       29.93F HX  98
FORT KNOX      PTSUNNY   89  72  56 S5        29.93F HX  95
$$

KYZ035>037-039>044-047>052-055>060-089>105-272200-
NORTHEAST KENTUCKY

CITY           SKY/WX    TMP DP  RH WIND       PRES   REMARKS
LEXINGTON      CLOUDY    89  74  60 W7        29.98F HX  98
COVINGTON      PTSUNNY   85  71  63 VRB3      29.97F HX  90
FRANKFORT      CLOUDY    88  74  63 W5        29.95F HX  96
$$

KYZ054-064>069-076>088-106>120-272200-
SOUTHEAST KENTUCKY

CITY           SKY/WX    TMP DP  RH WIND       PRES   REMARKS
JACKSON        MOSUNNY   90  73  57 CALM      29.98F HX  98
LONDON         MOSUNNY   92  68  45 W8        29.97F HX  96
SOMERSET       CLOUDY    88  72  58 W6        29.98S HX  94
MIDDLESBORO    SUNNY     94  69  44 CALM      29.96F HX  99
MONTICELLO     CLOUDY   N/A N/A N/A W3        29.98F
$$




USA.gov is the U.S. government's official web portal to all federal, state and local government web resources and services.